Date,TemperatureHighF,TemperatureAvgF,TemperatureLowF,DewpointHighF,DewpointAvgF,DewpointLowF,HumidityHigh,HumidityAvg,HumidityLow,PressureMaxIn,PressureMinIn,WindSpeedMaxMPH,WindSpeedAvgMPH,GustSpeedMaxMPH,PrecipitationSumIn
2013-1-1,46,39,34,37,33,30,97,80,66,30.43,30.26,19,11,23,0.01
2013-1-2,49,40,36,34,30,28,74,66,52,30.28,30.14,16,11,21,0.00
2013-1-3,50,42,35,49,35,26,100,78,61,30.28,30.10,18,10,29,0.36
2013-1-4,53,47,42,52,47,42,100,99,90,30.35,30.16,10,2,15,0.41
2013-1-5,49,45,43,46,44,42,100,97,88,30.22,30.13,10,4,15,0.29
2013-1-6,49,44,39,49,44,39,100,99,92,30.26,30.12,13,4,32,0.20
2013-1-7,50,48,46,50,48,46,100,100,100,30.27,30.09,22,7,32,1.21
2013-1-8,50,49,47,50,49,47,100,100,100,30.27,29.99,20,12,30,0.60
2013-1-9,49,43,36,49,42,36,100,96,80,30.05,29.81,23,7,36,0.87
2013-1-10,45,39,35,45,39,35,100,98,84,30.20,30.05,15,4,26,0.48
2013-1-11,45,38,32,43,35,29,100,89,69,30.34,30.19,10,3,26,0.09
2013-1-12,44,35,31,35,30,28,91,84,67,30.45,30.33,9,4,12,0.01
2013-1-13,42,33,29,34,29,27,94,85,65,30.51,30.44,10,4,14,0.00
2013-1-14,41,35,29,38,32,27,100,91,78,30.60,30.51,10,4,13,0.02
2013-1-15,49,40,35,45,39,34,100,95,80,30.68,30.58,10,3,15,0.02
2013-1-16,54,40,32,41,34,30,100,82,57,30.64,30.43,11,4,13,0.00
2013-1-17,59,45,37,34,31,29,75,59,36,30.43,30.24,12,6,17,0.00
2013-1-18,58,45,33,45,36,30,100,73,46,30.27,30.22,10,3,15,0.00
2013-1-19,47,40,31,43,38,31,100,92,71,30.32,30.24,9,2,11,0.00
2013-1-20,56,40,31,44,34,29,100,81,52,30.33,30.19,10,2,13,0.00
2013-1-21,57,43,36,36,32,28,77,65,45,30.24,30.10,13,6,15,0.00
2013-1-22,58,45,38,42,33,29,74,62,42,30.12,29.94,13,7,17,0.00
2013-1-23,46,43,39,46,39,32,100,87,64,30.23,29.91,12,3,16,0.63
2013-1-24,51,43,36,51,43,36,100,100,94,30.24,30.12,12,5,18,0.15
2013-1-25,49,46,41,49,46,41,100,100,100,30.17,30.01,14,6,19,0.64
2013-1-26,48,43,39,46,43,39,100,99,86,30.16,30.01,12,4,22,0.40
2013-1-27,44,41,35,44,41,35,100,100,100,30.23,30.12,12,3,18,0.55
2013-1-28,46,44,43,46,44,42,100,100,96,30.35,30.17,12,6,20,0.39
2013-1-29,46,45,44,46,45,44,100,100,100,30.56,30.35,11,4,17,0.30
2013-1-30,48,46,45,48,46,45,100,100,100,30.56,30.51,13,4,17,0.69
2013-1-31,53,47,41,53,47,41,100,100,100,30.47,30.37,5,0,6,0.06
2013-2-1,57,46,39,51,44,39,100,94,74,30.38,30.24,11,2,19,0.00
2013-2-2,59,48,43,47,43,39,99,84,56,30.35,30.24,11,6,17,0.00
2013-2-3,48,46,45,47,46,45,100,98,94,30.37,30.27,5,0,6,0.00
2013-2-4,51,46,42,49,45,42,100,96,84,30.28,30.03,24,4,25,0.00
2013-2-5,50,47,45,50,46,44,100,99,92,30.11,29.98,15,10,24,0.43
2013-2-6,49,46,41,48,45,40,100,96,83,30.14,29.89,20,10,30,0.48
2013-2-7,44,41,35,44,40,35,100,98,92,30.19,29.99,11,4,19,0.55
2013-2-8,48,39,31,47,37,31,100,95,80,30.33,30.19,14,2,22,0.01
2013-2-9,46,42,38,46,42,38,100,100,99,30.36,30.32,6,1,11,0.05
2013-2-10,48,45,42,48,44,41,100,96,88,30.39,30.33,7,2,13,0.04
2013-2-11,50,45,42,47,43,40,100,92,76,30.45,30.37,9,2,10,0.25
2013-2-12,50,47,46,50,47,46,100,100,100,30.55,30.44,8,2,11,0.28
2013-2-13,50,47,44,50,47,44,100,100,100,30.55,30.49,7,1,11,0.14
2013-2-14,54,46,40,51,45,40,100,96,82,30.59,30.47,8,1,11,0.01
2013-2-15,62,48,39,52,45,39,100,93,62,30.48,30.21,12,2,14,0.00
2013-2-16,52,46,40,50,45,39,100,98,87,30.35,30.28,10,3,16,0.07
2013-2-17,49,42,36,48,39,36,100,92,71,30.36,30.13,6,1,8,0.05
2013-2-18,46,40,35,44,40,35,100,97,87,30.13,29.77,13,5,20,0.31
2013-2-19,49,42,36,45,40,36,100,94,79,30.06,29.70,11,4,16,0.54
2013-2-20,45,40,34,45,40,34,100,99,90,30.17,30.06,14,4,20,0.26
2013-2-21,46,44,40,46,43,38,100,96,86,30.29,30.17,17,7,23,0.38
2013-2-22,49,45,41,49,45,39,100,98,89,30.25,30.01,24,12,33,0.85
2013-2-23,49,43,38,43,40,36,99,88,72,30.49,30.18,13,5,27,0.13
2013-2-24,50,44,39,45,41,39,100,89,72,30.49,30.13,19,6,29,0.09
2013-2-25,51,45,40,47,41,36,100,88,69,30.44,30.11,17,7,29,0.36
2013-2-26,52,42,36,42,38,36,100,86,61,30.44,30.27,10,4,13,0.02
2013-2-27,49,46,42,49,46,39,100,98,84,30.34,30.24,13,4,17,0.35
2013-2-28,49,49,48,49,49,48,100,100,100,30.50,30.24,23,14,29,0.98
2013-3-1,52,49,43,52,49,43,100,100,100,30.51,30.36,16,5,21,0.08
2013-3-2,50,46,39,50,46,39,100,100,100,30.37,30.26,8,2,15,0.05
2013-3-3,50,41,33,46,39,33,100,93,75,30.37,30.25,9,3,18,0.02
2013-3-4,54,42,31,46,38,31,100,87,58,30.25,29.92,15,6,23,0.00
2013-3-5,45,43,41,45,42,37,100,97,78,29.92,29.66,9,4,14,0.59
2013-3-6,48,44,42,48,44,42,100,99,92,30.00,29.61,19,6,25,0.42
2013-3-7,54,44,35,45,40,35,100,89,67,30.09,30.00,8,3,10,0.02
2013-3-8,51,41,32,48,40,32,100,96,82,30.25,30.06,10,2,15,0.00
2013-3-9,53,42,35,50,41,35,100,95,80,30.53,30.25,8,2,12,0.00
2013-3-10,51,43,34,48,42,34,100,96,81,30.53,30.46,5,0,8,0.03
2013-3-11,51,48,47,51,48,47,100,100,100,30.46,30.28,6,0,6,0.04
2013-3-12,53,47,44,53,47,44,100,100,97,30.28,30.24,13,3,15,0.01
2013-3-13,56,48,44,55,47,44,100,96,80,30.29,30.16,7,1,11,0.01
2013-3-14,52,48,46,49,47,46,100,97,83,30.27,30.12,17,9,26,0.16
2013-3-15,54,49,46,54,49,46,100,100,100,30.29,30.25,16,3,20,0.20
2013-3-16,48,46,42,48,46,39,100,99,86,30.26,30.11,15,6,23,0.32
2013-3-17,52,44,41,41,39,36,95,80,64,30.37,30.25,15,4,17,0.03
2013-3-18,51,43,34,48,40,34,100,92,76,30.35,30.14,11,2,15,0.02
2013-3-19,53,47,39,49,42,37,100,84,70,30.14,29.71,21,8,36,0.70
2013-3-20,51,47,43,51,44,37,100,92,76,30.25,29.63,32,14,46,1.05
2013-3-21,49,44,40,43,39,37,96,84,71,30.39,30.25,10,5,20,0.13
2013-3-22,50,41,35,44,38,34,100,89,69,30.43,30.38,11,3,21,0.09
2013-3-23,50,41,34,40,36,34,100,85,63,30.43,30.29,9,3,13,0.02
2013-3-24,53,45,38,43,38,34,95,77,62,30.30,30.13,9,3,12,0.00
2013-3-25,54,46,38,45,41,36,97,83,64,30.13,29.99,9,2,11,0.00
2013-3-26,51,47,45,50,46,44,100,98,94,30.07,29.99,7,1,11,0.01
2013-3-27,55,49,44,52,48,44,100,96,84,30.03,29.95,9,2,11,0.02
2013-3-28,56,50,42,54,49,42,100,97,84,30.19,30.02,7,1,10,0.02
2013-3-29,59,51,45,54,49,45,100,93,77,30.24,30.15,11,2,16,0.01
2013-3-30,71,56,43,55,47,-100,100,79,45,30.19,29.96,20,4,28,0.00
2013-3-31,57,52,46,57,50,46,100,95,83,30.08,30.01,16,6,21,0.00
2013-4-1,51,50,48,51,50,48,100,100,100,30.24,30.08,10,3,12,0.10
2013-4-2,56,50,48,55,49,47,100,97,86,30.27,30.21,8,2,10,0.04
2013-4-3,57,50,44,52,49,44,100,95,81,30.21,29.96,5,1,7,0.01
2013-4-4,54,51,49,54,51,49,100,100,100,29.95,29.75,26,8,35,0.59
2013-4-5,51,50,49,51,50,49,100,100,100,30.02,29.88,30,14,39,0.49
2013-4-6,52,49,46,52,49,46,100,100,100,30.08,29.73,25,10,35,0.54
2013-4-7,50,47,42,50,46,41,100,98,91,30.04,29.69,30,11,39,0.69
2013-4-8,54,47,40,48,43,39,99,88,73,30.35,30.05,8,4,13,0.04
2013-4-9,57,48,41,50,45,41,100,89,76,30.39,30.28,5,0,9,0.01
2013-4-10,54,49,43,52,48,42,100,96,81,30.39,30.23,19,6,29,0.23
2013-4-11,54,47,40,49,44,40,100,92,77,30.41,30.21,14,3,15,0.01
2013-4-12,53,44,36,47,42,36,100,95,79,30.21,29.97,18,5,23,0.16
2013-4-13,53,46,41,43,41,37,93,81,63,30.19,30.04,13,5,17,0.22
2013-4-14,52,44,41,45,42,39,100,91,74,30.16,30.02,8,3,11,0.15
2013-4-15,52,45,39,46,42,39,100,89,70,30.24,30.02,11,4,16,0.13
2013-4-16,55,48,43,47,44,41,98,84,69,30.45,30.23,10,4,14,0.03
2013-4-17,56,48,41,48,44,40,100,87,69,30.55,30.44,7,2,10,0.00
2013-4-18,56,50,44,49,45,40,100,84,70,30.53,30.39,8,3,9,0.00
2013-4-19,51,49,48,51,49,47,100,100,100,30.40,30.26,18,5,25,0.61
2013-4-20,56,50,45,51,47,43,100,92,75,30.41,30.34,8,3,11,0.04
2013-4-21,55,49,45,50,47,44,100,92,79,30.36,30.30,7,2,10,0.01
2013-4-22,67,51,37,49,42,34,100,77,29,30.41,30.33,13,4,20,0.01
2013-4-23,60,49,37,46,42,36,97,78,51,30.37,30.19,18,4,26,0.00
2013-4-24,68,53,38,43,40,35,100,67,37,30.23,30.03,13,4,21,0.00
2013-4-25,57,49,40,51,46,39,100,89,78,30.21,30.05,16,4,18,0.00
2013-4-26,57,49,42,52,47,42,100,92,76,30.29,30.20,12,3,15,0.00
2013-4-27,54,50,44,51,48,44,100,93,80,30.37,30.29,8,2,11,0.00
2013-4-28,59,52,48,56,50,48,100,92,74,30.34,30.20,9,3,15,0.12
2013-4-29,56,50,43,50,45,38,100,84,62,30.28,30.18,11,6,17,0.16
2013-4-30,54,46,40,45,40,37,98,81,62,30.47,30.27,13,4,20,0.02
2013-5-1,58,47,34,47,41,33,100,79,63,30.52,30.42,13,3,22,0.01
2013-5-2,64,53,41,48,43,39,95,72,44,30.42,30.29,17,5,23,0.00
2013-5-3,61,50,39,50,45,38,100,83,68,30.33,30.14,15,4,19,0.00
2013-5-4,80,63,43,52,40,29,100,54,17,30.15,29.88,15,4,24,0.00
2013-5-5,83,65,50,49,38,32,95,45,16,29.88,29.69,19,9,27,0.00
2013-5-6,61,54,47,52,49,45,97,85,72,29.99,29.86,11,5,16,0.00
2013-5-7,57,52,50,52,50,49,98,92,79,30.11,29.98,12,6,17,0.00
2013-5-8,60,53,50,52,49,47,100,89,72,30.21,30.11,8,2,11,0.00
2013-5-9,58,52,48,52,50,47,100,90,77,30.24,30.15,12,4,19,0.00
2013-5-10,57,50,47,54,48,-100,100,95,83,30.28,30.18,6,1,9,0.00
2013-5-11,64,55,47,55,50,-100,100,86,64,30.28,30.10,7,2,10,0.00
2013-5-12,60,55,53,56,53,50,100,93,81,30.19,30.11,13,7,17,0.09
2013-5-13,56,52,48,56,52,48,100,100,100,30.27,30.11,15,6,20,0.17
2013-5-14,59,50,41,55,47,41,100,89,69,30.27,30.17,9,2,13,0.01
2013-5-15,59,51,45,54,50,45,100,94,78,30.17,30.05,12,3,17,0.07
2013-5-16,58,50,49,55,37,-100,100,97,85,30.05,29.98,15,5,18,0.38
2013-5-17,61,53,46,56,46,-100,100,89,71,30.14,30.04,10,3,13,0.32
2013-5-18,57,52,49,55,52,47,100,98,88,30.32,30.13,23,6,25,0.17
2013-5-19,59,53,47,52,49,45,100,88,70,30.47,30.32,13,6,21,0.07
2013-5-20,58,51,41,51,47,41,100,88,74,30.38,30.01,12,3,19,0.01
2013-5-21,51,47,44,51,46,42,100,97,84,30.06,29.93,12,4,19,0.56
2013-5-22,50,47,44,50,47,43,100,100,92,30.04,30.00,12,6,21,0.98
2013-5-23,54,49,46,52,49,46,100,99,89,30.07,30.03,16,8,22,0.84
2013-5-24,55,50,47,54,49,46,100,99,90,30.15,30.04,16,7,22,0.40
2013-5-25,58,52,47,52,50,47,100,91,75,30.13,29.98,12,4,16,0.11
2013-5-26,57,52,50,54,51,49,100,96,82,30.11,29.98,16,8,23,0.22
2013-5-27,54,52,50,54,52,50,100,100,96,30.02,29.79,22,10,31,0.76
2013-5-28,58,53,49,55,51,48,100,94,81,30.01,29.78,14,7,19,0.25
2013-5-29,58,52,50,55,51,48,100,96,85,30.12,29.67,24,8,37,0.64
2013-5-30,60,52,47,54,50,46,100,92,74,30.30,30.11,12,3,14,0.07
2013-5-31,60,52,43,54,49,43,100,89,72,30.36,30.27,10,3,18,0.01
2013-6-1,62,54,45,56,51,45,100,89,73,30.29,30.11,10,3,11,0.01
2013-6-2,60,55,52,58,53,49,100,92,80,30.15,30.09,14,5,23,0.10
2013-6-3,60,54,49,53,50,48,98,86,74,30.16,30.10,13,6,22,0.02
2013-6-4,63,54,43,56,50,43,100,90,78,30.12,30.04,15,4,23,0.00
2013-6-5,60,54,47,56,52,47,100,96,84,30.14,30.06,13,5,21,0.00
2013-6-6,59,54,48,53,52,48,100,92,79,30.12,30.07,12,5,18,0.00
2013-6-7,63,54,46,57,52,46,100,92,70,30.19,30.11,14,3,16,0.00
2013-6-8,61,54,46,54,50,46,100,86,72,30.19,30.12,16,6,22,0.00
2013-6-9,60,54,50,52,49,46,93,82,71,30.14,30.06,20,9,32,0.00
2013-6-10,59,54,48,51,47,43,92,79,69,30.07,30.01,14,6,22,0.00
2013-6-11,60,53,46,53,50,46,100,90,73,30.20,30.05,9,2,12,0.01
2013-6-12,60,53,45,54,50,45,100,91,75,30.24,30.18,10,3,12,0.01
2013-6-13,60,54,50,57,52,50,100,96,82,30.34,30.22,10,4,13,0.59
2013-6-14,62,56,51,56,53,50,100,89,73,30.33,30.00,15,4,18,0.04
2013-6-15,60,54,47,57,52,47,100,95,86,30.09,29.96,9,2,13,0.00
2013-6-16,63,56,50,54,52,50,100,88,71,30.17,30.09,10,3,13,0.00
2013-6-17,60,54,49,57,53,49,100,96,81,30.15,30.05,17,6,21,0.08
2013-6-18,60,55,50,56,53,50,100,95,84,30.06,30.01,21,8,27,0.09
2013-6-19,63,56,51,58,54,51,100,92,74,30.15,30.00,12,5,15,0.64
2013-6-20,63,55,52,59,54,52,100,98,78,30.16,30.11,11,3,12,0.28
2013-6-21,64,62,60,55,54,53,79,74,73,30.20,30.17,9,7,15,0.00
2013-6-22,67,62,48,60,56,48,100,82,70,30.08,29.89,8,4,11,0.07
2013-6-23,64,58,54,63,58,54,100,99,92,29.90,29.68,13,5,18,0.39
2013-6-24,61,56,54,58,55,54,100,98,82,29.76,29.70,17,8,24,0.64
2013-6-25,61,57,54,61,57,54,100,99,93,29.89,29.71,18,10,33,0.50
2013-6-26,66,60,56,62,58,56,100,95,79,30.05,29.88,14,8,18,0.12
2013-6-27,66,60,57,63,59,57,100,97,86,30.21,30.02,14,4,18,0.02
2013-6-28,72,63,54,66,59,54,100,89,69,30.19,30.13,6,2,8,0.01
2013-6-29,72,63,55,64,59,55,100,88,66,30.15,30.01,11,3,15,0.01
2013-6-30,69,61,55,63,59,55,100,93,75,30.02,29.98,10,2,12,0.00
2013-7-1,67,60,57,63,59,57,100,96,84,30.11,29.99,10,4,15,0.00
2013-7-2,66,60,57,60,58,56,100,92,78,30.14,30.08,14,6,21,0.00
2013-7-3,64,59,52,57,54,52,100,85,72,30.18,30.12,15,6,27,0.00
2013-7-4,65,59,54,56,53,50,91,80,68,30.18,30.10,20,8,22,0.00
2013-7-5,65,59,55,56,53,50,89,80,70,30.12,30.03,15,6,21,0.00
2013-7-6,64,58,51,55,52,49,95,83,70,30.03,29.95,14,5,19,0.00
2013-7-7,65,59,55,56,54,52,94,84,69,30.03,29.97,13,6,17,0.00
2013-7-8,64,57,53,55,51,-100,98,84,69,30.11,30.03,12,4,21,0.00
2013-7-9,62,55,50,57,54,50,100,95,82,30.13,30.08,14,5,22,0.00
2013-7-10,62,55,52,55,49,-100,100,83,67,30.12,30.03,17,8,26,0.00
2013-7-11,64,57,52,52,49,47,85,76,60,30.11,30.03,16,7,22,0.00
2013-7-12,62,54,45,53,49,44,100,83,70,30.13,30.04,12,4,19,0.00
2013-7-13,64,55,44,55,50,44,100,85,66,30.19,30.08,15,5,25,0.00
2013-7-14,62,53,44,54,50,44,100,90,74,30.13,30.04,16,5,20,0.00
2013-7-15,63,54,48,55,51,48,100,89,66,30.06,29.86,13,4,18,0.00
2013-7-16,59,52,47,57,51,47,100,98,86,30.07,29.82,15,5,20,0.00
2013-7-17,63,55,51,57,53,50,100,93,75,30.22,30.07,12,3,18,0.00
2013-7-18,63,53,46,58,51,46,100,91,71,30.24,30.17,16,4,21,0.00
2013-7-19,62,56,52,54,53,51,100,91,74,30.19,30.12,16,7,25,0.00
2013-7-20,62,55,52,55,51,-100,100,89,77,30.14,30.02,13,6,24,0.00
2013-7-21,64,56,49,56,54,49,100,91,75,30.04,29.97,17,6,22,0.00
2013-7-22,62,55,50,55,53,50,100,94,76,30.07,29.99,14,4,16,0.00
2013-7-23,59,53,49,56,52,49,100,96,84,30.08,30.03,13,4,22,0.00
2013-7-24,58,53,48,55,51,48,100,95,83,30.10,30.05,13,5,21,0.00
2013-7-25,62,53,49,55,51,49,100,93,74,30.13,30.07,13,4,25,0.00
2013-7-26,60,53,45,56,50,45,100,92,77,30.20,30.09,19,5,28,0.00
2013-7-27,62,57,51,55,53,51,100,88,75,30.23,30.11,13,7,20,0.00
2013-7-28,62,56,51,56,52,49,99,90,77,30.11,30.02,10,4,16,0.00
2013-7-29,63,54,47,57,52,47,100,93,77,30.10,30.01,8,2,12,0.00
2013-7-30,64,56,53,56,54,51,100,92,76,30.19,30.10,7,1,9,0.00
2013-7-31,63,56,54,58,55,53,100,95,80,30.17,30.12,7,2,10,0.02
2013-8-1,60,55,53,59,55,53,100,99,92,30.16,30.11,11,3,13,0.07
2013-8-2,63,56,53,60,56,53,100,98,85,30.18,30.13,7,2,10,0.07
2013-8-3,65,57,49,60,55,49,100,93,79,30.14,30.04,13,4,19,0.02
2013-8-4,61,55,52,58,54,52,100,97,84,30.08,30.01,13,4,20,0.00
2013-8-5,60,54,51,57,52,51,100,96,80,30.08,30.01,11,4,17,0.00
2013-8-6,58,52,48,54,51,48,100,97,82,30.05,29.98,19,4,20,0.00
2013-8-7,56,52,49,56,52,49,100,100,97,30.13,30.02,8,1,10,0.01
2013-8-8,62,55,51,60,54,51,100,99,90,30.11,29.99,10,2,15,0.04
2013-8-9,63,55,52,58,54,52,100,97,81,30.01,29.94,9,3,15,0.01
2013-8-10,60,55,51,60,54,51,100,100,93,30.11,29.98,5,1,8,0.05
2013-8-11,65,56,52,62,56,52,100,98,85,30.12,30.07,7,1,9,0.03
2013-8-21,64,56,47,58,52,47,100,88,70,30.02,29.91,11,3,15,0.00
2013-8-22,59,54,49,58,54,49,100,99,92,29.99,29.91,10,1,14,0.00
2013-8-23,65,58,53,61,57,53,100,96,82,30.00,29.95,10,3,14,0.01
2013-8-24,64,57,52,61,53,-100,100,94,83,29.95,29.92,9,2,11,0.00
2013-8-25,60,55,50,60,54,50,100,97,85,29.97,29.92,8,1,11,0.00
2013-8-26,64,56,51,62,54,51,100,94,68,29.98,29.93,17,7,29,0.66
2013-8-27,67,61,58,66,60,58,100,99,86,29.98,29.89,11,3,17,1.11
2013-10-18,64,53,43,50,46,42,100,79,51,30.16,30.07,10,3,13,0.01
2013-10-19,60,48,40,56,44,-100,100,90,64,30.16,30.10,11,2,18,0.00
2013-10-20,53,48,43,53,48,43,100,99,92,30.16,30.08,11,2,14,0.01
2013-10-21,58,48,42,57,47,42,100,96,81,30.10,29.97,7,1,9,0.01
2013-10-22,52,50,47,52,50,47,100,100,100,30.08,30.02,0,0,5,0.02
2013-10-23,52,50,48,52,50,48,100,100,100,30.06,30.02,4,0,9,0.02
2013-10-24,54,51,48,54,50,48,100,98,92,30.12,30.04,6,1,12,0.01
2013-10-25,54,52,50,52,50,49,100,95,91,30.27,30.21,8,2,10,0.00
2013-10-26,56,50,47,50,46,-100,100,92,78,30.30,30.20,10,2,14,0.00
2013-10-27,56,50,42,53,48,42,100,95,83,30.21,29.88,15,3,19,0.05
2013-10-28,61,46,38,52,36,-100,100,78,40,29.92,29.81,11,2,13,0.01
2013-10-29,59,45,35,41,36,33,94,74,46,30.08,29.93,10,2,12,0.01
2013-10-30,54,45,35,48,41,34,98,87,73,30.21,30.08,7,2,11,0.00
2013-12-22,49,47,46,49,47,46,100,100,100,30.40,30.29,11,4,14,0.11
2013-12-23,48,45,37,48,45,37,100,100,100,30.56,30.38,11,2,16,0.37
2013-12-24,49,40,35,49,40,35,100,99,89,30.61,30.46,8,2,10,0.01
2013-12-25,52,41,36,42,37,33,100,88,65,30.47,30.35,7,3,11,0.00
2013-12-26,56,44,36,40,35,32,86,72,53,30.37,30.19,8,3,12,0.00
2013-12-27,54,43,37,46,40,33,100,87,66,30.40,30.18,7,2,12,0.00
2013-12-28,49,41,36,46,37,-100,100,92,79,30.52,30.40,6,1,10,0.00